DW6743 Weather Reports


Display with metric or nautical units.
time (UTC)temp
F
wind
direction
speed
MPH
gust
MPH
rain 1hr
in
rain 24hr
in
rain mn
in
humidity
%
barometer
mb
20260508183304 55 354 2.0 3.0 0.00 0.00 0.00 62 1023.3
20260508183115 55 354 1.0 3.0 0.00 0.00 0.00 61 1023.2
20260508181600 55 354 2.0 4.0 0.00 0.00 0.00 62 1023.2
20260508181304 55 343 2.0 3.0 0.00 0.00 0.00 62 1023.2
20260508180804 56 322 2.0 3.0 0.00 0.00 0.00 61 1023.2
20260508180304 56 322 2.0 3.0 0.00 0.00 0.00 61 1023.2
20260508174804 56 322 2.0 3.0 0.00 0.00 0.00 62 1023.2
20260508174612 56 322 1.0 4.0 0.00 0.00 0.00 61 1023.2
20260508174304 56 322 2.0 3.0 0.00 0.00 0.00 61 1023.2
20260508173304 56 359 1.0 5.0 0.00 0.00 0.00 61 1023.1
20260508173058 56 359 1.0 5.0 0.00 0.00 0.00 61 1023.1
20260508171804 56 345 3.0 8.0 0.00 0.00 0.00 67 1023.1
20260508171606 55 6 4.0 8.0 0.00 0.00 0.00 66 1023.0
20260508171304 56 23 3.0 6.0 0.00 0.00 0.00 66 1023.1
20260508170804 56 25 6.0 8.0 0.00 0.00 0.00 66 1023.1
20260508170304 56 38 5.0 7.0 0.00 0.00 0.00 66 1023.1
20260508170106 55 50 3.0 7.0 0.00 0.00 0.00 65 1023.1
20260508164600 56 1 3.0 5.0 0.00 0.00 0.00 66 1023.0
20260508164304 56 6 3.0 5.0 0.00 0.00 0.00 67 1022.9
20260508163804 56 334 3.0 5.0 0.00 0.00 0.00 67 1022.9
20260508163057 56 312 3.0 6.0 0.00 0.00 0.00 68 1022.8
20260508161804 56 312 4.0 6.0 0.00 0.00 0.00 69 1023.0
20260508161606 56 304 3.0 8.0 0.00 0.00 0.00 69 1023.0
20260508160804 57 317 3.0 9.0 0.00 0.00 0.00 69 1023.0
20260508160304 56 22 5.0 10.0 0.00 0.00 0.00 70 1022.9
20260508160055 56 10 3.0 10.0 0.00 0.00 0.00 70 1023.0
20260508154555 56 337 4.0 9.0 0.00 0.00 0.00 70 1022.8
20260508154304 57 11 5.0 7.0 0.00 0.00 0.00 71 1023.0
20260508153804 56 321 5.0 9.0 0.00 0.00 0.00 72 1022.9
20260508153304 56 332 4.0 10.0 0.00 0.00 0.00 71 1022.9
20260508153059 56 300 7.0 10.0 0.00 0.00 0.00 70 1022.8
20260508151804 56 315 5.0 9.0 0.00 0.00 0.00 69 1023.0
20260508151557 56 302 6.0 9.0 0.00 0.00 0.00 70 1022.9
20260508151304 56 320 6.0 8.0 0.00 0.00 0.00 70 1023.0
20260508150804 56 310 6.0 8.0 0.00 0.00 0.00 69 1023.0
20260508150304 56 298 6.0 9.0 0.00 0.00 0.00 70 1023.0
20260508150059 56 311 5.0 9.0 0.00 0.00 0.00 70 1023.0
20260508144804 56 296 7.0 8.0 0.00 0.00 0.00 71 1023.1
20260508144607 55 284 5.0 10.0 0.00 0.00 0.00 70 1023.1
20260508144304 56 301 7.0 9.0 0.00 0.00 0.00 72 1023.2
20260508143804 56 309 9.0 10.0 0.00 0.00 0.00 72 1023.2
20260508143305 56 296 9.0 12.0 0.00 0.00 0.00 71 1023.3
20260508143059 55 301 7.0 12.0 0.00 0.00 0.00 71 1023.2
20260508141804 56 319 9.0 12.0 0.00 0.00 0.00 72 1023.3
20260508141606 56 309 7.0 10.0 0.00 0.00 0.00 72 1023.4
20260508141304 56 311 7.0 10.0 0.00 0.00 0.00 72 1023.4
20260508140804 56 300 7.0 12.0 0.00 0.00 0.00 71 1023.3
20260508140057 55 322 8.0 12.0 0.00 0.00 0.00 72 1023.2
20260508134804 56 298 10.0 13.0 0.00 0.00 0.00 70 1023.4
20260508134601 56 278 11.0 13.0 0.00 0.00 0.00 70 1023.4
20260508134304 56 297 10.0 13.0 0.00 0.00 0.00 70 1023.4
20260508133804 56 303 10.0 13.0 0.00 0.00 0.00 70 1023.4
20260508133304 56 307 10.0 13.0 0.00 0.00 0.00 69 1023.3
20260508133058 56 308 9.0 13.0 0.00 0.00 0.00 69 1023.3
20260508131804 57 293 9.0 13.0 0.00 0.00 0.00 68 1023.3
20260508131607 57 303 10.0 15.0 0.00 0.00 0.00 67 1023.3
20260508131304 57 300 12.0 13.0 0.00 0.00 0.00 67 1023.3
20260508130304 56 286 13.0 18.0 0.00 0.00 0.00 68 1023.5
20260508130059 56 294 12.0 18.0 0.00 0.00 0.00 67 1023.5
20260508124804 56 284 11.0 14.0 0.00 0.00 0.00 68 1023.5
20260508124559 56 284 11.0 14.0 0.00 0.00 0.00 67 1023.4
20260508124304 57 290 12.0 14.0 0.00 0.00 0.00 66 1023.5
20260508123803 57 279 10.0 13.0 0.00 0.00 0.00 64 1023.5
20260508123304 57 285 10.0 18.0 0.00 0.00 0.00 65 1023.4
20260508123116 56 285 11.0 18.0 0.00 0.00 0.00 66 1023.4
20260508121804 57 299 13.0 16.0 0.00 0.00 0.00 65 1023.4
20260508121610 56 289 13.0 18.0 0.00 0.00 0.00 65 1023.4
20260508121304 57 303 13.0 15.0 0.00 0.00 0.00 64 1023.4
20260508120804 57 297 13.0 17.0 0.00 0.00 0.00 61 1023.5
20260508120304 57 296 12.0 17.0 0.00 0.00 0.00 61 1023.4
20260508120111 57 306 11.0 17.0 0.00 0.00 0.00 61 1023.4
20260508114804 58 273 12.0 15.0 0.00 0.00 0.00 56 1023.4
20260508114602 58 285 12.0 15.0 0.00 0.00 0.00 56 1023.3
20260508114304 58 297 12.0 15.0 0.00 0.00 0.00 57 1023.3
20260508113804 58 305 11.0 15.0 0.00 0.00 0.00 54 1023.2
20260508113304 58 286 11.0 18.0 0.00 0.00 0.00 51 1023.2
20260508113108 58 291 11.0 17.0 0.00 0.00 0.00 50 1023.2
20260508111804 57 271 13.0 20.0 0.00 0.00 0.00 55 1023.2
20260508111559 57 302 14.0 20.0 0.00 0.00 0.00 56 1023.2
20260508111304 57 277 14.0 17.0 0.00 0.00 0.00 59 1023.1
20260508110804 58 277 13.0 20.0 0.00 0.00 0.00 58 1023.0
20260508110304 58 261 11.0 18.0 0.00 0.00 0.00 60 1023.0
20260508110107 57 258 11.0 17.0 0.00 0.00 0.00 60 1023.0
20260508104804 57 277 10.0 16.0 0.00 0.00 0.00 63 1023.0
20260508104559 57 291 9.0 15.0 0.00 0.00 0.00 63 1022.9
20260508103108 56 295 13.0 16.0 0.00 0.00 0.00 65 1022.9
20260508101804 59 299 10.0 13.0 0.00 0.00 0.00 60 1022.9
20260508101559 59 310 11.0 13.0 0.00 0.00 0.00 60 1022.9
20260508101304 60 296 10.0 13.0 0.00 0.00 0.00 58 1022.8
20260508100804 62 290 7.0 10.0 0.00 0.00 0.00 50 1022.8
20260508100304 62 234 9.0 15.0 0.00 0.00 0.00 40 1022.8
20260508100058 62 204 10.0 15.0 0.00 0.00 0.00 40 1022.7
20260508094804 61 162 2.0 9.0 0.00 0.00 0.00 41 1022.7
20260508094555 61 157 5.0 17.0 0.00 0.00 0.00 40 1022.6
20260508094304 62 164 7.0 13.0 0.00 0.00 0.00 40 1022.7
20260508093804 61 206 13.0 17.0 0.00 0.00 0.00 40 1022.7
20260508093304 61 193 8.0 13.0 0.00 0.00 0.00 42 1022.6
20260508093106 60 165 3.0 12.0 0.00 0.00 0.00 41 1022.6
20260508091804 60 219 5.0 9.0 0.00 0.00 0.00 42 1022.7
20260508091557 60 233 5.0 12.0 0.00 0.00 0.00 43 1022.6
20260508091304 60 181 7.0 12.0 0.00 0.00 0.00 44 1022.7
20260508090804 60 209 7.0 10.0 0.00 0.00 0.00 42 1022.8
20260508090304 60 213 5.0 12.0 0.00 0.00 0.00 44 1022.7
20260508090106 59 163 4.0 12.0 0.00 0.00 0.00 43 1022.7
20260508084804 59 179 5.0 10.0 0.00 0.00 0.00 45 1022.8
20260508084559 58 169 6.0 11.0 0.00 0.00 0.00 44 1022.8
20260508084304 59 206 6.0 12.0 0.00 0.00 0.00 45 1022.8
20260508083804 58 177 5.0 10.0 0.00 0.00 0.00 46 1022.8
20260508083304 58 180 6.0 12.0 0.00 0.00 0.00 48 1022.8
20260508083057 57 209 7.0 12.0 0.00 0.00 0.00 48 1022.6
20260508081804 57 178 6.0 10.0 0.00 0.00 0.00 49 1022.7
20260508081601 56 178 5.0 14.0 0.00 0.00 0.00 49 1022.7
20260508080804 57 179 9.0 13.0 0.00 0.00 0.00 48 1022.8
20260508080054 56 175 7.0 12.0 0.00 0.00 0.00 50 1022.7
20260508074804 57 169 7.0 12.0 0.00 0.00 0.00 48 1022.7
20260508074556 56 177 6.0 11.0 0.00 0.00 0.00 48 1022.6
20260508074304 57 179 4.0 8.0 0.00 0.00 0.00 48 1022.7
20260508073304 56 176 3.0 9.0 0.00 0.00 0.00 49 1022.7
20260508073056 56 204 4.0 9.0 0.00 0.00 0.00 48 1022.6
20260508071555 56 177 2.0 5.0 0.00 0.00 0.00 48 1022.5
20260508071304 56 197 3.0 5.0 0.00 0.00 0.00 49 1022.6
20260508070804 56 190 1.0 3.0 0.00 0.00 0.00 48 1022.5
20260508070305 56 190 1.0 5.0 0.00 0.00 0.00 47 1022.5
20260508070057 55 0 0.0 6.0 0.00 0.00 0.00 46 1022.5
20260508064804 54 123 1.0 3.0 0.00 0.00 0.00 51 1022.3
20260508064555 53 123 1.0 3.0 0.00 0.00 0.00 51 1022.3
20260508064304 53 123 1.0 3.0 0.00 0.00 0.00 52 1022.3
20260508063804 53 161 0.0 2.0 0.00 0.00 0.00 52 1022.3
20260508063305 53 161 1.0 3.0 0.00 0.00 0.00 52 1022.3
20260508063104 52 161 0.0 3.0 0.00 0.00 0.00 52 1022.3
20260508061804 53 161 2.0 3.0 0.00 0.00 0.00 51 1022.2
20260508061556 52 161 0.0 5.0 0.00 0.00 0.00 51 1022.2
20260508061304 53 161 1.0 2.0 0.00 0.00 0.00 51 1022.2
20260508060805 52 161 0.0 2.0 0.00 0.00 0.00 52 1022.1
20260508060304 51 161 1.0 5.0 0.00 0.00 0.00 53 1022.1
20260508060056 51 161 1.0 5.0 0.00 0.00 0.00 53 1022.0
20260508054600 49 125 0.0 5.0 0.00 0.00 0.00 57 1022.0
20260508054304 49 125 1.0 3.0 0.00 0.00 0.00 60 1022.0
20260508053804 48 123 2.0 3.0 0.00 0.00 0.00 64 1022.0
20260508053304 47 121 1.0 8.0 0.00 0.00 0.00 66 1022.0
20260508053108 46 121 3.0 8.0 0.00 0.00 0.00 66 1021.9
20260508051804 43 125 1.0 3.0 0.00 0.00 0.00 72 1021.9
20260508051556 42 0 0.0 7.0 0.00 0.00 0.00 72 1021.8
20260508051304 42 125 2.0 5.0 0.00 0.00 0.00 73 1021.8
20260508050804 41 125 3.0 7.0 0.00 0.00 0.00 73 1021.8
20260508044804 39 118 3.0 7.0 0.00 0.00 0.00 74 1021.8
20260508044558 39 132 3.0 7.0 0.00 0.00 0.00 74 1021.7
20260508044304 39 128 3.0 7.0 0.00 0.00 0.00 75 1021.8
20260508043804 39 132 3.0 5.0 0.00 0.00 0.00 75 1021.7
20260508043304 38 147 3.0 7.0 0.00 0.00 0.00 75 1021.7
20260508043104 38 0 3.0 7.0 0.00 0.00 0.00 75 1021.6
20260508041804 37 133 2.0 5.0 0.00 0.00 0.00 76 1021.6
20260508041601 37 138 2.0 6.0 0.00 0.00 0.00 75 1021.6
20260508041304 37 155 2.0 6.0 0.00 0.00 0.00 76 1021.7
20260508040804 37 151 4.0 6.0 0.00 0.00 0.00 76 1021.6
20260508040058 36 156 4.0 9.0 0.00 0.00 0.00 76 1021.6
20260508034804 36 177 7.0 9.0 0.00 0.00 0.00 77 1021.5
20260508034612 35 172 7.0 9.0 0.00 0.00 0.00 77 1021.5
20260508034304 35 159 6.0 9.0 0.00 0.00 0.00 78 1021.4
20260508033805 35 139 4.0 8.0 0.00 0.00 0.00 77 1021.3
20260508033304 35 128 5.0 10.0 0.00 0.00 0.00 77 1021.3
20260508033102 34 148 4.0 10.0 0.00 0.00 0.00 77 1021.2
20260508031804 35 112 9.0 12.0 0.00 0.00 0.00 77 1021.1
20260508031556 34 113 8.0 10.0 0.00 0.00 0.00 77 1021.1
20260508030804 35 111 9.0 10.0 0.00 0.00 0.00 77 1021.1
20260508030059 34 104 8.0 10.0 0.00 0.00 0.00 76 1021.1
20260508024556 35 110 9.0 11.0 0.00 0.00 0.00 77 1020.9
20260508024304 35 107 9.0 12.0 0.00 0.00 0.00 77 1021.0
20260508023304 35 106 9.0 10.0 0.00 0.00 0.00 76 1020.9
20260508023056 35 104 8.0 10.0 0.00 0.00 0.00 76 1020.9
20260508021804 35 111 7.0 10.0 0.00 0.00 0.00 77 1020.9
20260508021605 35 113 5.0 8.0 0.00 0.00 0.00 76 1020.8
20260508021304 35 115 6.0 8.0 0.00 0.00 0.00 76 1020.9
20260508020804 36 110 6.0 8.0 0.00 0.00 0.00 76 1020.8
20260508020304 36 114 7.0 9.0 0.00 0.00 0.00 76 1020.8
20260508014557 35 102 6.0 9.0 0.00 0.00 0.00 76 1020.6
20260508014304 36 102 7.0 8.0 0.00 0.00 0.00 76 1020.7
20260508013804 36 107 8.0 9.0 0.00 0.00 0.00 76 1020.7
20260508013100 36 109 8.0 10.0 0.00 0.00 0.00 76 1020.6
20260508011804 36 119 8.0 9.0 0.00 0.00 0.00 76 1020.6
20260508011604 36 120 7.0 11.0 0.00 0.00 0.00 75 1020.5
20260508011304 36 120 8.0 12.0 0.00 0.00 0.00 76 1020.6
20260508010804 36 117 10.0 12.0 0.00 0.00 0.00 76 1020.6
20260508010304 37 119 9.0 12.0 0.00 0.00 0.00 75 1020.5
20260508010056 36 121 8.0 10.0 0.00 0.00 0.00 75 1020.5
20260508004804 37 122 7.0 9.0 0.00 0.00 0.00 75 1020.5
20260508004557 37 123 7.0 9.0 0.00 0.00 0.00 74 1020.4
20260508004304 37 120 7.0 9.0 0.00 0.00 0.00 75 1020.4
20260508003804 37 119 7.0 8.0 0.00 0.00 0.00 75 1020.4
20260508003304 37 115 7.0 10.0 0.00 0.00 0.00 75 1020.3
20260508003059 37 114 7.0 10.0 0.00 0.00 0.00 74 1020.2
20260508001804 38 116 8.0 10.0 0.00 0.00 0.00 74 1020.2
20260508001617 37 116 8.0 9.0 0.00 0.00 0.00 74 1020.1
20260508000804 38 116 7.0 8.0 0.00 0.00 0.00 74 1020.2
20260508000305 38 115 6.0 9.0 0.00 0.00 0.00 74 1020.3
20260508000058 38 114 7.0 9.0 0.00 0.00 0.00 74 1020.2
20260507234804 38 115 7.0 9.0 0.00 0.00 0.00 74 1020.1
20260507234558 38 116 7.0 10.0 0.00 0.00 0.00 73 1020.1
20260507234304 38 119 8.0 9.0 0.00 0.00 0.00 73 1020.1
20260507233804 38 119 8.0 10.0 0.00 0.00 0.00 73 1020.1
20260507233304 39 114 9.0 12.0 0.00 0.00 0.00 73 1020.1
20260507233057 38 115 8.0 10.0 0.00 0.00 0.00 72 1020.0
20260507231559 39 118 7.0 11.0 0.00 0.00 0.00 72 1019.9
20260507231304 39 117 7.0 10.0 0.00 0.00 0.00 72 1020.0
20260507230804 39 119 7.0 10.0 0.00 0.00 0.00 72 1020.0
20260507230058 39 121 5.0 8.0 0.00 0.00 0.00 71 1020.0
20260507224804 40 104 7.0 8.0 0.00 0.00 0.00 70 1019.9
20260507224601 40 102 6.0 8.0 0.00 0.00 0.00 69 1019.9
20260507224304 41 100 5.0 7.0 0.00 0.00 0.00 69 1019.8
20260507223804 41 100 5.0 8.0 0.00 0.00 0.00 68 1019.9
20260507223304 41 104 6.0 9.0 0.00 0.00 0.00 68 1019.9
20260507223058 40 106 6.0 9.0 0.00 0.00 0.00 67 1019.8
20260507221804 41 92 6.0 7.0 0.00 0.00 0.00 68 1019.9
20260507221559 41 93 4.0 9.0 0.00 0.00 0.00 68 1019.8
20260507221304 41 93 5.0 8.0 0.00 0.00 0.00 68 1019.8
20260507220826 42 92 7.0 9.0 0.00 0.00 0.00 68 1019.8
20260507220304 42 102 7.0 9.0 0.00 0.00 0.00 68 1019.9
20260507220059 41 102 6.0 9.0 0.00 0.00 0.00 67 1019.8
20260507214804 42 89 5.0 8.0 0.00 0.00 0.00 67 1019.7
20260507214602 42 90 5.0 10.0 0.00 0.00 0.00 67 1019.7
20260507214304 42 85 6.0 9.0 0.00 0.00 0.00 67 1019.7
20260507213804 43 88 6.0 10.0 0.00 0.00 0.00 67 1019.6
20260507213304 43 91 6.0 10.0 0.00 0.00 0.00 67 1019.6
20260507213057 42 97 5.0 10.0 0.00 0.00 0.00 66 1019.6
20260507211558 43 90 5.0 10.0 0.00 0.00 0.00 67 1019.5
20260507211304 43 96 5.0 8.0 0.00 0.00 0.00 68 1019.5
20260507210304 43 91 6.0 9.0 0.00 0.00 0.00 68 1019.4
20260507210058 43 91 6.0 9.0 0.00 0.00 0.00 67 1019.4
20260507204804 44 90 6.0 9.0 0.00 0.00 0.00 66 1019.3
20260507204600 44 91 5.0 9.0 0.00 0.00 0.00 66 1019.2
20260507204304 45 87 7.0 9.0 0.00 0.00 0.00 66 1019.2
20260507203804 45 84 7.0 8.0 0.00 0.00 0.00 65 1019.1
20260507203304 46 78 7.0 10.0 0.00 0.00 0.00 64 1019.1
20260507203101 45 74 8.0 10.0 0.00 0.00 0.00 63 1019.0
20260507201804 47 75 8.0 9.0 0.00 0.00 0.00 61 1019.1
20260507201610 47 79 8.0 9.0 0.00 0.00 0.00 60 1019.0
20260507201304 48 75 8.0 9.0 0.00 0.00 0.00 60 1019.1
20260507200804 49 71 7.0 8.0 0.00 0.00 0.00 58 1019.1
20260507200304 49 70 6.0 12.0 0.00 0.00 0.00 57 1019.1
20260507200108 49 68 6.0 11.0 0.00 0.00 0.00 56 1018.9
20260507194804 50 62 8.0 10.0 0.00 0.00 0.00 56 1018.9
20260507194557 50 52 7.0 10.0 0.00 0.00 0.00 55 1018.8
20260507194304 51 56 6.0 9.0 0.00 0.00 0.00 55 1018.8
20260507193804 51 50 8.0 10.0 0.00 0.00 0.00 55 1018.8
20260507193304 51 47 6.0 9.0 0.00 0.00 0.00 54 1018.7
20260507193058 51 45 6.0 9.0 0.00 0.00 0.00 54 1018.8
20260507191804 52 41 7.0 10.0 0.00 0.00 0.00 53 1018.5
20260507191558 51 41 6.0 12.0 0.00 0.00 0.00 53 1018.5
20260507190804 52 41 9.0 12.0 0.00 0.00 0.00 52 1018.4
20260507190305 52 41 7.0 12.0 0.00 0.00 0.00 51 1018.4
20260507190057 52 43 8.0 13.0 0.00 0.00 0.00 51 1018.3
20260507184804 53 45 9.0 12.0 0.00 0.00 0.00 51 1018.2
20260507184603 52 50 7.0 13.0 0.00 0.00 0.00 51 1018.1
20260507184304 53 39 8.0 12.0 0.00 0.00 0.00 51 1018.0
20260507183804 54 46 9.0 13.0 0.00 0.00 0.00 49 1018.0